Simultaneous Nadir Overpasses (SNOs) Predictions

Prediction of SNOs between GOES-17 and AQUA Satellite Orbit:

Table of predicted SNOs for the next 14.0 days since TLE Epoch: 9/16/2023
Index Date Time (GOES-17) GOES-17 Lat,Lon AQUA Lat,Lon Distance(km) Time Diff (sec)
1 09/16/2023 20:53:21 -0.01,-104.68 -0.11,-105.20 58.68 80
2 09/18/2023 20:41:29 -0.01,-104.68 0.64,-101.65 344.59 80
3 09/19/2023 09:02:08 0.01,-104.71 0.44,-106.65 221.07 80
4 09/21/2023 08:44:56 0.01,-104.70 -0.36,-103.11 181.90 80
5 09/21/2023 21:05:43 -0.01,-104.67 -0.74,-108.14 394.33 80
6 09/23/2023 20:53:49 -0.01,-104.66 -0.01,-104.58 8.75 80
7 09/25/2023 20:39:15 -0.02,-104.65 0.76,-101.03 411.94 80
8 09/26/2023 08:59:54 0.02,-104.68 0.29,-106.03 153.23 80
9 09/28/2023 08:42:39 0.02,-104.67 -0.46,-102.47 250.73 80
10 09/28/2023 21:03:25 -0.02,-104.64 -0.65,-107.50 325.42 80
